Location: Vista Encantada
(35.1109°N, 106.5681°W)
Time: 21:20:33
(UTC+00:00)

Nauka - Pass Details

Date: 07 October 2021
Orbit: 417 x 423 km, 51.6° (Epoch: 22 October)

Event Time Altitude Azimuth Distance (km) Brightness Sun altitude
Rises 01:20:46 0° 316° (NW) 2,361 ? -8.6°
Reaches altitude 10° 01:22:54 10° 321° (NW) 1,496 ? -9.0°
Maximum altitude 01:26:12 53° 40° (NE) 519 ? -9.7°
Enters shadow 01:29:04 13° 116° (ESE) 1,330 ? -10.3°
